Location: Artiguedieu
(43.5000°N, 0.5454°E)
Time: 19:58:46
(UTC+00:00)

Transit 2A - Pass Details

Date: 01 August 2021
Orbit: 594 x 964 km, 66.7° (Epoch: 28 September)

Event Time Altitude Azimuth Distance (km) Brightness Sun altitude
Rises 13:54:33 0° 334° (NNW) 3,212 9.1 55.4°
Reaches altitude 10° 13:57:02 10° 343° (NNW) 2,344 8.5 55.0°
Maximum altitude 14:02:02 36° 50° (NE) 1,299 7.3 54.3°
Drops below altitude 10° 14:07:28 10° 116° (ESE) 2,557 8.6 53.5°
Sets 14:10:16 0° 125° (SE) 3,542 9.3 53.1°
